{"data":{"norad_id":55156,"epoch":"2026-09-19T23:48:33.740352Z","epoch_age_seconds":65884,"freshness":"FRESH","line1":"1 55156U 23004S   26262.99205718 -.00000433  00000+0 -12577-2 0  9995","line2":"2 55156  87.8959   2.2276 0001988 113.1677 246.9661 13.11415059178269","mean_motion":13.11415059,"eccentricity":0.0001988,"inclination_deg":87.8959,"raan_deg":2.2276,"arg_perigee_deg":113.1677,"mean_anomaly_deg":246.9661,"bstar":-0.0012577,"rev_number":17826,"period_min":109.8050529554,"perigee_km":1216.1799305422,"apogee_km":1219.2000313499,"semimajor_km":7595.8269809461,"source":"CELESTRAK","updated_at":"2026-09-20T09:00:44.753349Z"}}